カタログに戻る

STARLINK-33806

運用中通信VLEO
NORAD 63723·PAYLOAD·🇺🇸 United States

打ち上げ Apr 28, 2025 から Vandenberg Space Force Base

Loading…

次のパス (今後24時間)

TLE

最新Source: CelesTrak SupGP

元期: Sep 14, 2026, 22:54 UTC

1 63723C 25087AC  26257.95465278  .00029135  00000+0  86110-3 0  2576
2 63723  53.1598  59.7604 0001127  81.2061  20.8233 15.34365767    10

AllMySatでSTARLINK-33806をリアルタイム追跡

Download on the App Store